Weather History for KNGP - March, 2013

Change the Weather History Date:

Thursday, March 7, 2013

  Actual Average (KCRP) Record (KCRP)
Temperature  
Mean Temperature 65 °F 64 °F  
Max Temperature 75 °F 74 °F 90 °F (1961)
Min Temperature 55 °F 55 °F 28 °F (1989)
Degree Days  
Heating Degree Days 0 4  
Month to date heating degree days 28  
Since 1 July heating degree days 828  
Cooling Degree Days 0 3  
Month to date cooling degree days 20  
Year to date cooling degree days 96  
Growing Degree Days 15 (Base 50)    
Moisture  
Dew Point 58 °F    
Average Humidity 75    
Maximum Humidity 89    
Minimum Humidity 55    
Precipitation  
Precipitation 0.00 in 0.06 in 2.76 in (1995)
Month to date precipitation 0.49  
Year to date precipitation 3.96  
Snow  
Snow 0.00 in - - ()
Month to date snowfall  
Since 1 July snowfall  
Snow Depth -    
Sea Level Pressure  
Sea Level Pressure 30.16 in    
Wind  
Wind Speed 11 mph (ESE)    
Max Wind Speed 23 mph    
Max Gust Speed 28 mph    
Visibility 10 miles    
Events      
T = Trace of Precipitation, MM = Missing Value Source: NWS Daily Summary

Daily Weather History Graph

Daily Weather History Graph

Search for Another Location

Airport or City:

Trip Planner

Search our weather history database for the weather conditions in past years. The results will help you decide how hot, cold, wet, or windy it might be!

Date:

Astronomy

Mar. 07, 2013 Rise Set
Actual Time 6:47 AM CST 6:33 PM CST
Civil Twilight 6:23 AM CST 6:56 PM CST
Nautical Twilight 5:56 AM CST 7:23 PM CST
Astronomical Twilight 5:29 AM CST 7:51 PM CST
Moon 3:29 AM CST (3/7) 2:39 PM CST (3/7)
Length of Visible Light 12h 33m
Length of Day
11h 46m
Waning Crescent, 20% of the Moon is Illuminated
Mar 7
Waning Crescent
Mar 11
New
Mar 19
First Quarter
Mar 27
Full
Apr 2
Last Quarter

Hourly Weather History & Observations

Time (CST) Temp. Dew Point Humidity Pressure Visibility Wind Dir Wind Speed Gust Speed Precip Events Conditions
12:56 AM 57.9 °F 51.1 °F 78% 30.23 in 10.0 mi SE 5.8 mph - N/A   Clear
1:56 AM 55.9 °F 51.1 °F 84% 30.19 in 10.0 mi SE 8.1 mph - N/A   Clear
2:56 AM 57.0 °F 52.0 °F 83% 30.17 in 10.0 mi SE 8.1 mph - N/A   Clear
3:56 AM 57.0 °F 52.0 °F 83% 30.15 in 10.0 mi SSE 5.8 mph - N/A   Clear
4:56 AM 57.0 °F 53.1 °F 87% 30.14 in 10.0 mi ESE 5.8 mph - N/A   Clear
5:56 AM 57.9 °F 54.0 °F 87% 30.15 in 10.0 mi East 5.8 mph - N/A   Overcast
6:56 AM 57.0 °F 54.0 °F 89% 30.17 in 10.0 mi ESE 5.8 mph - N/A   Mostly Cloudy
7:56 AM 64.0 °F 59.0 °F 84% 30.19 in 10.0 mi ESE 4.6 mph - N/A   Scattered Clouds
8:56 AM 69.1 °F 57.9 °F 68% 30.21 in 10.0 mi SE 9.2 mph - N/A   Mostly Cloudy
9:56 AM 71.1 °F 57.0 °F 61% 30.22 in 10.0 mi SE 11.5 mph - N/A   Mostly Cloudy
10:56 AM 73.0 °F 57.9 °F 59% 30.22 in 10.0 mi ESE 13.8 mph - N/A   Mostly Cloudy
11:56 AM 75.0 °F 57.9 °F 55% 30.19 in 10.0 mi ESE 18.4 mph - N/A   Mostly Cloudy
12:56 PM 75.0 °F 60.1 °F 60% 30.17 in 10.0 mi ESE 19.6 mph - N/A   Overcast
1:56 PM 75.0 °F 59.0 °F 57% 30.14 in 10.0 mi ESE 19.6 mph 26.5 mph N/A   Mostly Cloudy
2:56 PM 75.0 °F 59.0 °F 57% 30.14 in 10.0 mi ESE 23.0 mph 27.6 mph N/A   Mostly Cloudy
3:56 PM 71.1 °F 59.0 °F 66% 30.13 in 10.0 mi ESE 21.9 mph 27.6 mph N/A   Mostly Cloudy
4:56 PM 71.1 °F 59.0 °F 66% 30.12 in 10.0 mi ESE 20.7 mph 27.6 mph N/A   Mostly Cloudy
5:56 PM 69.1 °F 61.0 °F 75% 30.13 in 10.0 mi ESE 18.4 mph - N/A   Mostly Cloudy
6:56 PM 68.0 °F 61.0 °F 78% 30.13 in 10.0 mi ESE 15.0 mph - N/A   Mostly Cloudy
7:56 PM 66.9 °F 62.1 °F 84% 30.13 in 10.0 mi ESE 15.0 mph - N/A   Mostly Cloudy
8:56 PM 66.9 °F 62.1 °F 84% 30.14 in 10.0 mi ESE 15.0 mph - N/A   Mostly Cloudy
9:56 PM 68.0 °F 62.1 °F 81% 30.15 in 10.0 mi SE 16.1 mph - N/A   Overcast
10:56 PM 66.9 °F 62.1 °F 84% 30.13 in 10.0 mi SE 16.1 mph - N/A   Mostly Cloudy
11:56 PM 66.9 °F 62.1 °F 84% 30.13 in 10.0 mi ESE 13.8 mph - N/A   Clear